Weather in Azino

Russia / Udmurt Republic     56°58′21″N   52°42′36″E
temp.,
°C
wind,
m/s
gust,
m/s
humid.,
%
clouds,
%
prec.,
mm/h
press.,
hPa
HPBL,
m
17 september, fri
fri1701:00+5nw41092100 0.0 1009680
04:00+5nw41091100 0.1 1009675
07:00+5nw4893100 0.2 1010811
10:00+5nw4792100 0.3 1011809
13:00+6nw4784100 0.3 1011940
16:00+6wnw3789100 0.4 1012663
19:00+4wnw379388 0.1 1012526
22:00+5nw3793100 0.1 1012682
18 september, sat
sat1801:00+4wnw3596100 0.3 1012751
04:00+4nnw4797100 0.9 1012622
07:00+2nnw399498 0.6 1014632
10:00+3nw4890100 0.6 10151000
13:00+4nw4889100 0.1 10161013
16:00+5nw5978100 0.3 10171358
19:00+3wnw4118695 0.0 1018745
22:00+2nw41188100 0.0 1018605
19 september, sun
sun1901:00+1nw4119251 0.0 1019532
04:00+1nw4989100 0.0 1020698
07:000wnw499075 0.0 1021368
10:00+4nnw466488 0.0 10221152
13:00+5nnw4558100 0.0 10231253
16:00+6n465883 0.0 10231124
19:00+3nnw3770100 0.0 1024376
22:00+2nw267899 0.0 1025252
20 september, mon
mon2001:00+2nw2575100 0.0 1026180
04:00+2nw2470100 0.0 1027125
07:00+2nw247171 0.0 1028151
10:00+5n23597 0.0 1028951
13:00+8n22486 0.0 10281332
16:00+9ne23475 0.0 10281347
19:00+3ne267548 0.0 1030126
22:00+1ene278687 0.0 1031162
21 september, tue
tue2101:000ene23919 0.0 103173
04:00−1ene22956 0.0 103151
07:000ene249227 0.0 1031107
10:00+6e356183 0.0 1029800
13:00+9ese345155 0.0 10271018
16:00+10ese235086 0.0 10261065
19:00+5ene2373100 0.0 102544
22:00+3ene2880100 0.0 1025161